EDT,Max TemperatureF,Mean TemperatureF,Min TemperatureF,Max Dew PointF,MeanDew PointF,Min DewpointF,Max Humidity, Mean Humidity, Min Humidity, Max Sea Level PressureIn, Mean Sea Level PressureIn, Min Sea Level PressureIn, Max VisibilityMiles, Mean VisibilityMiles, Min VisibilityMiles, Max Wind SpeedMPH, Mean Wind SpeedMPH, Max Gust SpeedMPH,PrecipitationIn, CloudCover, Events, WindDirDegrees
2013-9-1,86,78,71,73,72,70,100,85,62,29.88,29.85,29.82,10,9,5,12,6,,0.00,4,Thunderstorm,200
2013-9-2,80,76,73,75,73,70,100,90,74,29.82,29.78,29.74,10,6,1,8,2,,0.08,5,,209
2013-9-3,84,75,64,72,66,57,100,73,45,29.90,29.80,29.74,10,8,2,14,5,21,0.00,3,,284
2013-9-4,80,71,62,59,56,54,82,58,39,30.03,29.98,29.90,10,10,10,14,7,17,0.00,0,,284
2013-9-5,80,68,57,61,53,43,77,55,32,30.15,30.02,29.97,10,10,10,14,7,20,0.00,2,,293
2013-9-6,69,62,55,48,45,43,67,53,40,30.26,30.20,30.15,10,10,10,12,6,16,0.00,0,,30
2013-9-7,78,64,51,55,49,45,76,57,30,30.15,30.06,29.94,10,10,10,14,3,16,0.00,0,,232
2013-9-8,84,74,64,64,57,45,88,57,38,30.08,29.91,29.85,10,10,8,15,8,21,0.00,2,,298
2013-9-9,73,64,55,59,51,43,77,57,43,30.25,30.19,30.09,10,10,10,13,6,17,0.00,1,,97
2013-9-10,89,79,69,72,67,59,78,65,55,30.20,30.15,30.08,10,10,10,14,7,20,0.00,4,,215
2013-9-11,95,86,78,75,71,70,78,65,49,30.15,30.09,30.01,10,10,5,12,7,17,0.00,0,,218
2013-9-12,89,80,71,73,71,68,94,76,52,30.03,29.87,29.72,10,9,5,14,6,22,0.51,3,Thunderstorm,215
2013-9-13,78,71,64,68,60,48,83,65,44,29.87,29.73,29.67,10,9,5,21,8,26,0.21,3,,298
2013-9-14,73,62,48,48,46,45,87,57,38,30.14,30.01,29.87,10,10,10,15,9,21,0.00,2,,305
2013-9-15,73,60,48,55,47,43,87,60,36,30.24,30.17,30.11,10,10,10,13,6,,0.00,0,,273
2013-9-16,69,62,59,59,56,52,88,79,64,30.21,30.10,30.06,10,10,7,13,6,18,0.02,4,,297
2013-9-17,,,,,,,,,,30.42,30.35,30.22,10,10,10,17,9,24,0.00,1,,30
2013-9-18,69,62,53,50,47,43,82,59,38,30.35,30.28,30.21,10,10,10,10,4,,0.00,0,,253
2013-9-19,73,60,48,55,51,45,93,71,41,30.21,30.16,30.10,10,10,10,13,5,,0.00,0,,238
2013-9-20,75,64,53,59,55,50,94,74,47,30.11,30.07,30.02,10,10,10,12,5,17,0.00,0,,213
2013-9-21,77,65,53,66,61,50,94,82,57,30.02,29.87,29.70,10,10,7,17,5,26,0.07,5,,174
2013-9-22,69,61,53,66,52,41,94,67,40,29.92,29.77,29.67,10,10,5,18,10,29,0.40,3,,308
2013-9-23,66,55,44,45,41,39,81,60,42,30.05,29.99,29.92,10,10,10,17,8,23,0.00,0,,315
2013-9-24,71,56,42,48,44,39,87,65,40,30.06,29.98,29.90,10,10,10,14,6,17,0.00,0,,299
2013-9-25,71,58,44,52,47,41,87,66,35,29.97,29.93,29.89,10,10,10,8,4,,0.00,0,,298
2013-9-26,69,58,48,57,52,45,88,77,60,30.10,30.01,29.94,10,10,10,14,3,16,0.00,3,,45
2013-9-27,66,58,51,54,51,48,94,73,52,30.27,30.19,30.10,10,10,10,12,3,17,0.00,5,,47
2013-9-28,69,62,53,54,51,48,88,66,46,30.32,30.27,30.24,10,10,10,14,6,22,0.00,2,,47
2013-9-29,66,58,51,55,50,45,94,73,56,30.23,30.16,30.08,10,10,10,13,4,16,0.00,1,,48
2013-9-30,69,58,48,54,50,45,93,74,49,30.08,30.04,30.00,10,10,9,10,4,,0.00,1,,3